Погода в Дурасно

Уругвай     33°22′36″S   56°30′56″W
темп.,
°C
ветер,
м/с
пор.,
м/с
влажн.,
%
обл.,
%
осадки,
мм/ч
давл.,
гПа
погр.,
м
24 мая, вт
вт2400:00+11св3791100 0.0 1016140
03:00+11ссв3794100 0.0 1015135
06:00+11с3893100 0.0 1015170
09:00+12с3787100 0.0 1016183
12:00+18ссз4669100 0.0 1016462
15:00+20сз3565100 0.0 1015581
18:00+16с118397 0.0 101511
21:00+16ссв1185100 0.0 101711
25 мая, ср
ср2500:00+16юв2390100 0.2 101745
03:00+15в2597100 2.1 1017149
06:00+15ссв1197100 1.3 101621
09:00+15с41099100 3.8 1016441
12:00+17ссз5109788 2.8 1015498
15:00+15ю71097100 4.6 1015532
18:00+10ююв91593100 0.1 1019645
21:00+10юв71489100 0.1 1022566
26 мая, чт
чт2600:00+9ююв5119443 0.0 1024497
03:00+10ююв6118799 0.0 1025577
06:00+8юв410880 0.0 1024251
09:00+9юв411885 0.0 1026429
12:00+14вюв67610 0.0 1025930
15:00+15в566142 0.0 10221119
18:00+13вюв4872100 0.0 1021353
21:00+13в61173100 0.0 1020546
27 мая, пт
пт2700:00+11вюв41193100 2.1 1019474
03:00+11вюв3798100 6.6 1017268
06:00+11ююв4699100 6.9 1015212
09:00+12ююв3697100 8.2 1016244
12:00+12ююв5998100 0.0 1016352
15:00+13ююв6995100 0.1 1015601
18:00+11ююв51093100 0.0 1016453
21:00+11ююв499297 0.0 1018431
28 мая, сб
сб2800:00+9ююв489172 0.0 1018219
03:00+7юв488862 0.0 1018186
06:00+7юв378766 0.0 1017173
09:00+8вюв4783100 0.0 1018206
12:00+11в3575100 0.0 1017337
15:00+11в2481100 0.1 1015283
18:00+10юв3587100 0.1 1015192
21:00+10юв3793100 0.4 1016252